Skip Page Navigation
NASA JPL Caltech
NASA Logo - Jet Propulsion Laboratory + View the NASA Portal
+ Center for Near-Earth Object Studies
JPL Home Earth Solar System Stars & Galaxies Technology
JPL Solar System Dynamics
BODIES ORBITS EPHEMERIDES TOOLS PHYSICAL DATA DISCOVERY FAQ SITE MAP
IMPORTANT: The SSD Announcement email list is now available. Major changes are coming in the near future, including possible hostname and/or URL changes. To be notified of such changes, subscribe to this email list.

Please visit this page for more details.


JPL Small-Body Database Browser
Search: [ help ]  
136182 (2003 UE202)
Classification: Main-belt Asteroid          SPK-ID: 2136182
Ephemeris | Orbit Diagram | Orbital Elements | Mission Design | Physical Parameters | Discovery Circumstances | Close-Approach Data ]

[ show orbit diagram ]
Orbital Elements at Epoch 2458600.5 (2019-Apr-27.0) TDB
Reference: JPL 12 (heliocentric ecliptic J2000)
 Element Value Uncertainty (1-sigma)   Units 
e .1444053828397391 3.9782e-08  
a 2.369529320081043 1.5359e-08 au
q 2.027356531464754 9.4306e-08 au
i .9689748400378493 5.432e-06 deg
node 350.420537136498 0.00030412 deg
peri 243.3416752414129 0.00030485 deg
M 234.3308138464515 2.3059e-05 deg
tp 2459065.569500374201
(2020-Aug-04.06950037)
8.7383e-05 TDB
period 1332.267879336344
3.65
1.2953e-05
3.546e-08
d
yr
n .2702159269795879 2.6273e-09 deg/d
Q 2.711702108697333 1.7577e-08 au
  Orbit Determination Parameters
   # obs. used (total)      245  
   data-arc span      7083 days (19.39 yr)  
   first obs. used      1999-08-17  
   last obs. used      2019-01-07  
   planetary ephem.      DE431  
   SB-pert. ephem.      SB431-N16  
   condition code      0  
   norm. resid. RMS      .53903  
   source      ORB  
   producer      Otto Matic  
   solution date      2019-Jul-14 04:16:12  

Additional Information
 Earth MOID = 1.01636 au 
 Jupiter MOID = 2.28442 au 
 T_jup = 3.531 
[ hide covariance matrix ]
Orbital Elements at Epoch 2456930.5 (2014-Sep-30.0) TDB
Reference: JPL 12 (heliocentric ecliptic J2000)
 Element Value Uncertainty (1-sigma)   Units 
e .1449592093269271 3.9703e-08  
q 2.025463306453772 9.4139e-08 au
tp 2456401.798120227976
(2013-Apr-19.29812023)
7.8376e-05 TDB
node 350.4476870657205 0.0003037 deg
peri 243.4040148911786 0.00030443 deg
i .9703783348351305 5.4338e-06 deg
  Orbit Determination Parameters
   # obs. used (total)      245  
   data-arc span      7083 days (19.39 yr)  
   first obs. used      1999-08-17  
   last obs. used      2019-01-07  
   planetary ephem.      DE431  
   SB-pert. ephem.      SB431-N16  
   condition code      0  
   norm. resid. RMS      .53903  
   source      ORB  
   producer      Otto Matic  
   solution date      2019-Jul-14 04:16:12  

Additional Information
 Jupiter MOID = 2.28442 au 
 T_jup = 3.531 
Orbit Covariance (6×6)
  e q tp node peri i
e 1.576351176995804E-15 -3.701569189560052E-15 3.359602702983638E-13 1.989108458884043E-15 1.019442502389742E-13 -1.557542102170626E-16
q -3.701569189560052E-15 8.862151940429029E-15 -5.993942023890114E-13 -8.620988742908023E-15 -1.695667338937466E-13 4.810575564169703E-16
tp 3.359602702983638E-13 -5.993942023890114E-13 6.142821628870961E-9 6.650138118897566E-12 1.670079212928502E-9 1.663996533340149E-13
node 1.989108458884043E-15 -8.620988742908023E-15 6.650138118897566E-12 9.223632332847709E-8 -9.222116184828745E-8 -4.629110753867897E-10
peri 1.019442502389742E-13 -1.695667338937466E-13 1.670079212928502E-9 -9.222116184828745E-8 9.267839224636232E-8 4.629009237687224E-10
i -1.557542102170626E-16 4.810575564169703E-16 1.663996533340149E-13 -4.629110753867897E-10 4.629009237687224E-10 2.952587964453546E-11

Ephemeris | Orbit Diagram | Orbital Elements | Mission Design | Physical Parameters | Discovery Circumstances | Close-Approach Data ]

Physical Parameter Table
Parameter Symbol Value Units Sigma Reference Notes
absolute magnitude H 17.2   n/a MPO422491  

136182 (2003 UE202)          Discovered 2003-Oct-21 by Spacewatch at Kitt Peak
Reference: 20060907/Numbers.arcLast Updated: 2006-09-10

[ show close-approach data ]
Ephemeris | Orbit Diagram | Orbital Elements | Mission Design | Physical Parameters | Discovery Circumstances | Close-Approach Data ]
ABOUT SSD CREDITS/AWARDS PRIVACY/COPYRIGHT GLOSSARY LINKS
FirstGov 2019-Dec-08 00:26 UT
(server date/time)  
NASA Home Page
Site Manager:   Ryan S. Park
Webmaster  Alan B. Chamberlin